STARLINK-35847, 66621

Orbit data source: Space-Track

STARLINK-35847, 66621 is a payload satellite owned by SpaceX/Seattle (US) in LEO that was launched on Sun, 23 Nov 2025 UTC via an FALCON 9 launch vehicle from the Air Force Western Test Range (AFWTR). Payload-class satellites include a variety of spacecraft equipped with specific instruments for various scientific and technological missions. These include communications satellites like Starlink; space stations such as the ISS; scientific satellites like the Hubble; Earth observation satellites from companies like Planet Labs, Umbra, and HawkEye 360; GPS; miniature CubeSats for education and research; and military/defense satellites.

Loading next visibility...
Identifier
66621, 2025-271E
Orbit
LEO
Country
Flag of USUS
Related business
Manufacturer
SpaceX/Seattle
Mission
Operational Commercial Communications
Bus & Motor
STARLINK V2MO, Unknown motor
Mass
575 kg wet, ~530 kg dry
Launch date (UTC)
2025-11-23 (7 months ago)
Launch vehicle
FALCON 9
Launch site
Air Force Western Test Range (AFWTR)
Object type
Payload
Rocket body
Debris
Shape & HBR
Box + 2 Pan, 17.7 m
Radar Cross Section
36.964 m², Large (>1 m²)

Expand to show TLE details & history
Last TLE update: 3 days ago

TLE from 3 days ago
0 STARLINK-35847
1 66621U 25271E   26170.97124339  .00016050  00000-0  55266-3 0  9991
2 66621  53.1603  25.0369 0001331  90.4705 269.6448 15.30211483 33226
Epoch: 2026-06-19T23:18Z
TLE epoch observation values (Epoch: 2026-06-19T23:18:35.428Z)
Latitude
-0.00007°
Longitude
127.19667°
Altitude
476.086 km
Speed
7.629 km/s
True Right ascension
01h 40m 08s
True Declination
0° 00' 00"
Sunlit
Object was in daylight at epoch
Visualization orbit readout
Latitude
Unknown
Longitude
Unknown
Altitude
Unknown
Speed
Unknown
Apparent Right ascension
Unknown
Apparent Declination
Unknown
Sunlit
N/A
Visualization observer readout
Local Sidereal Time
10:27:49
Azimuth
Unknown
Elevation
Unknown
Doppler factor
Unknown
Orbital elements
Apogee altitude
476.349 km
Perigee altitude
474.525 km
Semi-major axis
6,853.574 km
Eccentricity
0.00013
Inclination
53.1603°
RAAN
25.0369°
Arg. of periapsis
90.4705°
True anomaly
269.62955°
Mean anomaly
269.6448°
Eccentric anomaly
269.63717°
Mean motion
3.82532 °/min
Orbital period
94.11 mins
BSTAR
0.00055266
Loading maneuver chart data...
Computing Atmospheric mass density...
Loading historical data...
Loading historical data...
Loading historical data...
Loading historical data...
Loading historical data...
Loading historical data...
Loading historical data...

Documentation

Showing up to 5 results
|